Weather History for Springfield, MO

Change the Weather History Date:

Friday, January 18, 2013

  Actual Average Record
Temperature  
Mean Temperature 41 °F 32 °F  
Max Temperature 57 °F 43 °F 68 °F (1974)
Min Temperature 24 °F 22 °F -17 °F (1930)
Degree Days  
Heating Degree Days 24 33  
Month to date heating degree days 550 591  
Since 1 July heating degree days 2197 2401  
Cooling Degree Days 0 0  
Month to date cooling degree days 0 0  
Year to date cooling degree days 0 0  
Moisture  
Dew Point 24 °F    
Average Humidity 55    
Maximum Humidity 85    
Minimum Humidity 24    
Precipitation  
Precipitation 0.00 in 0.08 in 1.40 in (1973)
Month to date precipitation 1.38 1.50  
Year to date precipitation 1.38 1.50  
Snow  
Snow 0.00 in - - ()
Month to date snowfall 0.1  
Since 1 July snowfall 1.4  
Snow Depth 0.00 in    
Sea Level Pressure  
Sea Level Pressure 30.34 in    
Wind  
Wind Speed 14 mph (South)    
Max Wind Speed 26 mph    
Max Gust Speed 33 mph    
Visibility 10 miles    
Events      
T = Trace of Precipitation, MM = Missing Value Source: NWS Daily Summary

Daily Weather History Graph

Daily Weather History Graph

Search for Another Location

Airport:

Trip Planner

Search our weather history database for the weather conditions in past years. The results will help you decide how hot, cold, wet, or windy it might be!

Date:

Astronomy

Jan. 18, 2013 Rise Set
Actual Time 7:25 AM CST 5:23 PM CST
Civil Twilight 6:56 AM CST 5:51 PM CST
Nautical Twilight 6:25 AM CST 6:23 PM CST
Astronomical Twilight 5:53 AM CST 6:54 PM CST
Moon 11:15 AM CST (1/18) 12:03 AM CST (1/18)
Length of Visible Light 10h 54m
Length of Day
9h 58m
Waxing Crescent, 47% of the Moon is Illuminated
Jan 18
Waxing Crescent
Jan 18
First Quarter
Jan 26
Full
Feb 3
Last Quarter
Feb 10
New

Hourly Weather History & Observations

Time (CST) Temp. Windchill Dew Point Humidity Pressure Visibility Wind Dir Wind Speed Gust Speed Precip Events Conditions
12:52 AM 27.0 °F 19.5 °F 21.9 °F 81% 30.50 in - SSE 6.9 mph - N/A   Clear
1:52 AM 26.1 °F 18.4 °F 21.9 °F 84% 30.51 in 10.0 mi South 6.9 mph - N/A   Clear
2:52 AM 26.1 °F 17.6 °F 21.9 °F 84% 30.51 in 10.0 mi SSE 8.1 mph - N/A   Clear
3:52 AM 27.0 °F 18.0 °F 23.0 °F 85% 30.48 in 10.0 mi South 9.2 mph - N/A   Clear
4:52 AM 27.0 °F 17.3 °F 23.0 °F 85% 30.48 in 10.0 mi SSE 10.4 mph - N/A   Clear
5:52 AM 28.0 °F 19.3 °F 23.0 °F 81% 30.46 in 10.0 mi SSE 9.2 mph - N/A   Clear
6:52 AM 28.0 °F 18.6 °F 24.1 °F 85% 30.46 in 10.0 mi SSE 10.4 mph - N/A   Clear
7:52 AM 28.9 °F 18.6 °F 24.1 °F 82% 30.45 in 10.0 mi SSE 12.7 mph - N/A   Clear
8:52 AM 34.0 °F 24.2 °F 26.1 °F 73% 30.45 in 10.0 mi SSE 15.0 mph - N/A   Clear
9:52 AM 39.9 °F 31.8 °F 28.0 °F 63% 30.45 in 10.0 mi South 15.0 mph - N/A   Clear
10:52 AM 45.0 °F 38.2 °F 28.0 °F 52% 30.43 in 10.0 mi SSW 15.0 mph - N/A   Clear
11:52 AM 48.0 °F - - N/A% 30.38 in 10.0 mi South 17.3 mph - N/A   Clear
12:52 PM 52.0 °F - 28.9 °F 41% 30.32 in 10.0 mi SSW 15.0 mph - N/A   Clear
1:52 PM 55.9 °F - 25.0 °F 30% 30.29 in 10.0 mi SW 20.7 mph 27.6 mph N/A   Clear
2:52 PM 57.0 °F - 21.0 °F 25% 30.27 in 10.0 mi SW 24.2 mph 32.2 mph N/A   Clear
3:52 PM 55.9 °F - 21.0 °F 26% 30.25 in 10.0 mi SW 18.4 mph 26.5 mph N/A   Clear
4:52 PM 53.1 °F - 21.0 °F 29% 30.24 in 10.0 mi SSW 13.8 mph - N/A   Clear
5:52 PM 46.0 °F 40.6 °F 21.9 °F 39% 30.23 in 10.0 mi South 11.5 mph - N/A   Clear
6:52 PM 46.9 °F - 21.9 °F 37% 30.22 in 10.0 mi South 15.0 mph - N/A   Clear
7:52 PM 46.0 °F 39.0 °F 23.0 °F 40% 30.22 in 10.0 mi South 17.3 mph - N/A   Clear
8:52 PM 44.1 °F 37.1 °F 25.0 °F 47% 30.20 in 10.0 mi South 15.0 mph - N/A   Clear
9:52 PM 42.1 °F 34.5 °F 27.0 °F 55% 30.19 in 10.0 mi South 15.0 mph - N/A   Clear
10:52 PM 41.0 °F 33.9 °F 27.0 °F 57% 30.18 in 10.0 mi South 12.7 mph - N/A   Clear
11:52 PM 37.0 °F 29.8 °F 26.1 °F 65% 30.18 in 10.0 mi South 10.4 mph - N/A   Clear